Find Starlink 34157

NORAD ID: 64084 Int'l Des: 2025-107 Owner: SPXS Country: US Constellation: starlink operational
LEOCIRCULAR

Current View

Loading 3D Globe...

About Starlink 34157

Starlink 34157 (NORAD 64084) is a starlink constellation satellite (v2 mini) launched May 21, 2025 by SPXS of US. It operates in LEO, CIRCULAR orbit with a mass of 575.00 kg.

Upcoming Passes

Passes for default location (London). Set your location on the main map for personalized predictions.

Altitude History

Loading altitude history...

Two-Line Element Set

1 64084U 25107W 26252.03696036 .00014197 00000-0 52430-3 0 9996
2 64084 42.9986 245.8657 0001055 200.0910 159.9900 15.27589399 74149
Epoch: Sep 9, 2026 • Age: 12 hours

Current Status

Altitude 483.7 km
Apogee / Perigee N/A
Velocity 7.63 km/s
Sub-Earth Point 32.24°N, 154.18°W
Launch Date May 21, 2025
Age 1.3 years
Type internet

Technical Details

Classification Payload
Mass 575.00 kg
Dry Mass 530.00 kg
Total Mass 575.00 kg
Length 0.30 m
Diameter 4.10 m
Span 29.00 m
Shape Box + pan
Manufacturer SPXS
Bus Type Starlink V2MO
Phase Status In Orbit
Owner/State SPXS/US

Most Searched